#timestamp,LO_Frequency,Hit 
1499554815.8,286047006.9,N
1499554835.7,286047007.1,N
1499554855.5,286047006.1,N
1499554875.4,286047008.8,N
1499554895.2,286047008.7,N
1499554915.0,286047006.6,N
1499554915.9,286047006.6,N
1499554935.8,286047007.2,N
1499554955.6,286047006.8,N
1499554975.4,286047010.3,N
1499554995.3,286047006.5,N
1499555015.1,286047006.4,N
1499555035.9,286047007.0,N
1499555055.7,286047006.6,N
1499555075.5,286047008.6,N
1499555095.4,286047006.7,N
1499555115.2,286047008.7,N
1499555135.0,286047008.4,N
1499555135.9,286047008.4,N
1499555155.8,286047008.4,N
1499555175.6,286047006.2,N
1499555195.4,286047008.7,N
1499555215.3,286047006.5,N
1499555235.1,286047007.0,N
1499555255.9,286047007.4,N
1499555275.7,286047006.1,N
1499555295.5,286047007.0,N
1499555315.4,286047009.1,N
1499555335.2,286047009.0,N
1499555355.0,286047006.5,N
1499555355.9,286047006.5,N
1499555375.8,286047007.2,N
1499555395.6,286047007.6,N
1499555415.5,286047004.7,N
1499555435.3,286047007.4,N
1499555455.1,286047007.1,N
1499555475.9,286047007.0,N
1499555495.7,286047005.0,N
1499555515.5,286047007.2,N
1499555535.4,286047004.9,N
1499555555.2,286047006.8,N
1499555575.1,286047006.9,N
1499555576.0,286047006.9,N
1499555595.8,286047005.0,N
1499555615.6,286047007.4,N
1499555635.5,286047006.7,N
1499555655.3,286047006.4,N
1499555675.1,286047006.2,N
1499555695.9,286047008.6,N
1499555715.7,286047008.6,N
1499555735.6,286047008.6,N
1499555755.4,286047008.5,N
1499555775.2,286047006.1,N
1499555795.1,286047009.2,N
1499555796.0,286047009.2,N
1499555815.8,286047006.1,N
1499555835.6,286047006.5,N
1499555855.5,286047008.8,N
1499555875.3,286047006.1,N
1499555895.1,286047009.0,N
1499555915.9,286047008.7,N
1499555935.7,286047008.6,N
1499555955.6,286047008.9,N
1499555975.4,286047008.0,N
1499555995.2,286047008.2,N
1499556015.1,286047008.1,N
1499556016.0,286047008.1,N
1499556035.8,286047010.3,N
1499556055.6,286047008.3,N
1499556075.5,286047007.7,N
1499556095.3,286047008.8,N
1499556115.2,286047008.1,N
1499556135.9,286047008.4,N
1499556155.7,286047008.5,N
1499556175.6,286047010.8,N
1499556195.4,286047007.9,N
1499556215.2,286047008.0,N
1499556235.1,286047010.3,N
1499556236.0,286047010.3,N
1499556255.8,286047010.4,N
1499556275.7,286047010.5,N
1499556295.5,286047007.8,N
1499556315.3,286047007.7,N
1499556335.2,286047010.2,N
1499556355.9,286047010.0,N
1499556375.7,286047010.1,N
1499556395.6,286047010.7,N
1499556415.4,286047009.5,N
1499556435.3,286047010.3,N
1499556455.1,286047010.2,N
1499556456.0,286047010.2,N
1499556475.8,286047007.7,N
1499556495.7,286047008.3,N
1499556515.5,286047009.0,N
1499556535.3,286047006.6,N
1499556555.2,286047006.6,N
1499556575.0,286047006.5,N
1499556575.9,286047006.5,N
1499556595.8,286047006.2,N
1499556615.6,286047006.4,N
1499556635.4,286047006.9,N
1499556655.3,286047004.6,N
1499556675.1,286047006.8,N
1499556676.0,286047006.8,N
1499556695.8,286047007.1,N
1499556715.7,286047006.9,N
1499556735.5,286047006.9,N
1499556755.3,286047008.5,N
1499556775.2,286047009.0,N
1499556795.0,286047006.2,N
1499556795.9,286047006.2,N
1499556815.8,286047008.5,N
1499556835.6,286047008.9,N
1499556855.4,286047008.4,N
1499556875.3,286047010.8,N
1499556895.1,286047010.3,N
1499556915.9,286047008.5,N
1499556935.7,286047008.7,N
1499556955.5,286047008.2,N
1499556975.4,286047009.0,N
1499556995.2,286047008.2,N
1499557015.0,286047007.8,N
1499557015.9,286047007.8,N
1499557035.8,286047010.8,N
1499557055.6,286047006.1,N
1499557075.5,286047008.0,N
1499557095.3,286047010.1,N
1499557115.1,286047010.6,N
1499557135.9,286047010.4,N
1499557155.7,286047011.8,N
1499557175.5,286047009.6,N
1499557195.4,286047012.4,N
1499557215.2,286047009.6,N
1499557235.1,286047010.6,N
1499557236.0,286047010.6,N
1499557255.8,286047010.6,N
1499557275.6,286047010.3,N
1499557295.5,286047010.5,N
1499557315.3,286047010.3,N
1499557335.1,286047007.7,N
1499557355.9,286047009.5,N
1499557375.7,286047009.3,N
1499557395.5,286047012.3,N
1499557415.4,286047012.3,N
1499557435.2,286047012.0,N
1499557455.1,286047012.3,N
1499557456.0,286047012.3,N
1499557475.8,286047012.3,N
1499557495.6,286047009.8,N
1499557515.5,286047010.1,N
1499557535.3,286047010.2,N
1499557555.1,286047010.5,N
1499557575.9,286047010.5,N
1499557595.7,286047010.0,N
1499557615.6,286047010.1,N
1499557635.4,286047010.1,N
1499557655.2,286047011.6,N
1499557675.1,286047012.4,N
1499557676.0,286047012.4,N
1499557695.8,286047012.3,N
1499557715.6,286047009.6,N
1499557735.5,286047011.5,N
1499557755.3,286047011.7,N
1499557775.2,286047009.5,N
1499557795.9,286047008.1,N
1499557815.7,286047010.2,N
1499557835.6,286047009.6,N
1499557855.4,286047012.1,N
1499557875.2,286047011.8,N
1499557895.1,286047013.9,N
1499557896.0,286047013.9,N
1499557915.8,286047012.1,N
1499557935.7,286047012.3,N
1499557955.5,286047009.5,N
1499557975.3,286047011.7,N
1499557995.2,286047012.3,N
1499558015.0,286047011.9,N
1499558015.9,286047011.9,N
1499558035.7,286047009.3,N
1499558055.6,286047009.3,N
1499558075.4,286047011.2,N
1499558095.3,286047011.9,Y
1499558115.1,286047002.5,N
1499558116.0,286047002.5,N
1499558135.8,286047002.4,N
1499558155.7,286047002.5,N
1499558175.5,286047002.1,N
1499558195.3,286047002.7,N
1499558215.2,286047002.1,N
1499558235.0,286047002.7,N
1499558235.9,286047002.7,N
1499558255.8,286046999.9,N
1499558275.6,286047002.1,N
1499558295.4,286047002.2,N
1499558345.3,286047003.8,Y
1499558355.2,286046999.8,N
1499558375.1,286046998.8,N
1499558376.0,286046998.8,N
1499558395.8,286046999.1,N
